Location: Castiglione Fibocchi
(43.5333°N, 11.7667°E)
Time: 10:06:05
(UTC+00:00)

Cosmos 1544 Rocket - Pass Details

Date: 15 August 2020
Orbit: 603 x 632 km, 82.5° (Epoch: 19 September)

Event Time Altitude Azimuth Distance (km) Brightness Sun altitude
Exits shadow 01:22:36 59° 333° (NNW) 733 3.9 -25.8°
Drops below altitude 10° 01:26:24 10° 4° (N) 2,019 6.9 -25.4°
Sets 01:28:39 0° 7° (N) 2,929 8.0 -25.2°
